Regional Weather Roundup
Issued by NWS

Home | Current Version | Previous Version | Text Only | Print | Product List | Glossary Off
Versions: 1 2 3 4 5 6 7 8 9 10 11 12 13 14 15 16 17 18 19 20 21 22 23 24 25 26 27 28 29 30 31 32 33 34 35 36 37 38 39 40 41 42 43 44 45 46 47 48 49 50

000
ASUS43 KMKX 191000
RWRWI

WISCONSIN REGIONAL WEATHER ROUNDUP
NATIONAL WEATHER SERVICE MILWAUKEE/SULLIVAN WI
500 AM CDT SAT AUG 19 2017

NOTE: "FAIR" INDICATES FEW OR NO CLOUDS BELOW 12,000 FEET WITH NO
SIGNIFICANT WEATHER AND/OR OBSTRUCTIONS TO VISIBILITY.

WIZ001-002-006>008-014>016-023>028-191100-
NORTHWEST WISCONSIN

CITY           SKY/WX    TMP DP  RH WIND       PRES   REMARKS
SUPERIOR ARPT    N/A     55  55 100 SW7       29.86S
ASHLAND        CLEAR     59  56  89 SW8       29.86S
HAYWARD        CLOUDY    58  57  97 S3        29.91S FOG
SIREN          CLEAR     56  56  98 CALM      29.91S
CUMBERLAND     FOG       55  54  94 W3        29.92S VSB 1
RICE LAKE      FOG       55  54  98 CALM      29.93S VSB<1/4
CHETEK         FOG       55  55 100 CALM      29.92S VSB 1/2
LADYSMITH      CLEAR     60  59  97 SW3       29.93S FOG
EAU CLAIRE     PTCLDY    57  55  94 CALM      29.91S FOG
MENOMONIE      FOG       56  56 100 CALM      29.92S VSB 1/2
NEW RICHMOND   FOG       55  55 100 CALM      29.92S VSB 1/2
OSCEOLA        CLOUDY    54  54 100 CALM      29.95R FOG
$$

WIZ003>005-009-010-017-018-191100-
NORTH CENTRAL WISCONSIN

CITY           SKY/WX    TMP DP  RH WIND       PRES   REMARKS
MANITOWISH WTR FOG       56  56 100 CALM      29.89S VSB 1/4
ARBOR VITAE    CLEAR     59  58  96 CALM      29.90R
WOODRUFF       CLEAR     59  58  96 CALM      29.90R
RHINELANDER    FOG       59  59 100 W10       29.91R VSB 3/4
EAGLE RIVER    PTCLDY    58  58 100 CALM      29.88S
LAND O LAKES   CLOUDY    59  59 100 W3        29.90R FOG
PHILLIPS       CLOUDY    60  60 100 CALM      29.90S
TOMAHAWK         N/A     60  59  97 W5        29.91S FOG
MEDFORD        FOG       59  59  99 W8        29.92R VSB 1/2
MERRILL        CLOUDY    63  63 100 W10       29.92R FOG
$$

WIZ029-030-035-036-043>047-191100-
CENTRAL WISCONSIN

CITY           SKY/WX    TMP DP  RH WIND       PRES   REMARKS
WAUSAU         CLOUDY    63  62  97 NW9       29.90S
MOSINEE        CLOUDY    61  61 100 NW7       29.93R FOG
MARSHFIELD     CLEAR     59  57  93 NW5       29.92R FOG
STEVENS POINT  CLOUDY    58  58 100 W3        29.93R FOG
WAUPACA        CLOUDY    65  65  97 W7        29.91R
WAUTOMA        FOG       59  59 100 SW3       29.92R VSB 1/2
WISC RAPIDS    PTCLDY    60  60 100 W3        29.93R FOG
CAMP DOUGLAS   FOG       51  51 100 CALM      29.93R VSB 1/4
$$

WIZ011>013-019>022-031-037>040-048>050-191100-
NORTHEAST WISCONSIN

CITY           SKY/WX    TMP DP  RH WIND       PRES   REMARKS
ANTIGO         FOG       59  59 100 W8        29.91R VSB 1/2
SHAWANO        MOCLDY    61  59  93 W6        29.89R FOG
OCONTO         CLEAR     55  55  99 W3        29.86S
STURGEON BAY   CLEAR     59  57  93 SW5       29.88R
GREEN BAY      CLEAR     58  58 100 W6        29.88S
MANITOWOC      NOT AVBL
APPLETON       FOG       61  61 100 W8        29.89S VSB<1/4
CLINTONVILLE   CLOUDY    61  61 100 W5        29.89S FOG
OSHKOSH        CLOUDY    63  61  93 NW8       29.90S FOG
$$

WIZ032>034-041-042-053>061-191100-
SOUTHWEST WISCONSIN

CITY           SKY/WX    TMP DP  RH WIND       PRES   REMARKS
LA CROSSE      FOG       62  61  96 S6        29.93S VSB 3/4
SPARTA         FOG       54  54 100 CALM      29.94R VSB<1/4
VIROQUA        PTCLDY    57  57 100 CALM      29.95S VSB 1/2
BOSCOBEL       FOG       60  59  96 CALM      29.94S VSB 1/4
PRAIRIE DU CHI FOG       59  58  96 CALM      29.93S VSB 1/4
PLATTEVILLE    CLEAR     57  57 100 NW5       29.94S
$$

WIZ056-057-062-063-064-067-068-191100-
SOUTH CENTRAL WISCONSIN

CITY           SKY/WX    TMP DP  RH WIND       PRES   REMARKS
REEDSBURG      FOG       55  55 100 CALM      29.93R VSB 1/2
BARABOO/DELLS    N/A     57  56  95 S5        29.93R FOG
LONE ROCK      FOG       58  58 100 NW3       29.94R VSB 1/4
MINERAL POINT  FOG       55  55 100 N3        29.94S VSB 1/4
MADISON        CLEAR     59  57  93 CALM      29.92S FOG
MIDDLETON      CLEAR     59  59 100 CALM      29.93S
WATERTOWN      CLEAR     59  59 100 CALM      29.92R
MONROE         PTCLDY    59  57  94 NW5       29.93S FOG
JANESVILLE     FOG       59  59 100 CALM      29.92R VSB 3/4
$$

WIZ051-052-058>065-066-070>072-191100-
SOUTHEAST WISCONSIN

CITY           SKY/WX    TMP DP  RH WIND       PRES   REMARKS
MILWAUKEE      PTCLDY    65  62  90 NW6       29.90R
WAUKESHA       PTCLDY    59  59 100 W5        29.93S
MILWAUKEE/TIMM CLOUDY    61  57  88 CALM      29.91S
RACINE         PTCLDY    62  61  96 NW7       29.92S
KENOSHA        PTCLDY    58  57  97 NW5       29.91S
FOND DU LAC    CLOUDY    63  61  93 W6        29.91S FOG
SHEBOYGAN      CLOUDY    61  61 100 W5        29.90R
WEST BEND      CLOUDY    61  61 100 NW3       29.91S
JUNEAU         MOCLDY    61  60  97 CALM      29.92S FOG
$$

LSZ147-162-191100-
LAKE SUPERIOR

STATION/POSITION TIME  TEMP    WIND        PRES    WAVE
                       AIR SEA DIR/SP/G            HT/PER
                 (UTC) (F)     (DEG/KT/KT) (MB)    (FT/S)
W MID LAKE BUOY  0850   61 60  250/ 14/ 16 1009.1S   1/ 3
DEVILS ISLAND    0900   62     240/ 15/ 17 1010.0R
SAXON HARBOR     0930   64     200/  8/ 15 1010.5S
$$

LMZ867-665-643>646-191100-
LAKE MICHIGAN

STATION/POSITION TIME  TEMP    WIND        PRES    WAVE
                       AIR SEA DIR/SP/G            HT/PER
                 (UTC) (F)     (DEG/KT/KT) (MB)    (FT/S)
S GREEN BAY BUOY 0930   66 70  270/ 12/ 14 1011.2R
N MID LAKE BUOY  0750   66 66  300/ 12/ 14 1010.7F   1/ 3
NORTHPORT PIER   0940   62     260/  3/  4 1010.5S
KEWAUNEE LAKESHO 0930   61     290/  4/  6 1010.9R
SHEBOYGAN LAKESH 0900   65     270/  7/  7 1011.7R
PORT WASHINGTON  0940   65     300/  4/  8 1013.2S
ATWATER BUOY     0809   67 70  270/  8/  8 1012.2S
MILWAUKEE LAKESH 0930   65     300/  5/  6   N/A
S MID LAKE BUOY  0850   69 71  350/ 12/ 14 1011.7R   2/ 4
KENOSHA   LAKESH 0900   64     290/  9/ 10 1012.2
$$

TC  - TEMPERATURE IN CELSIUS
VSB - VISIBILITY IN STATUTE MILES
WCI - WIND CHILL INDEX
HX  - HEAT INDEX





USA.gov is the U.S. government's official web portal to all federal, state and local government web resources and services.